Tracking 17884 objects as of 3-December-2016
HD Live streaming from Space Station
objects crossing your sky now

COSMOS 2251 DEB

Track COSMOS 2251 DEB now!
10-day predictions


NORAD ID: 35970
Int'l Code: 1993-036AVL
Perigee: 677.7 km
Apogee: 739.4 km
Inclination: 74.0 °
Period: 98.8 minutes
Semi major axis: 7079 km
RCS: 0.0106 m2 (small)
Launch date: June 16, 1993
Source: Commonwealth of Independent States (former USSR) (CIS)
Launch site: PLESETSK MISSILE AND SPACE COMPLEX (PKMTR)

Note: This is SATELLITE DEBRIS
Your satellite tracking list
Your tracking list is empty





NASA's NSSDC Master Catalog

Two Line Element Set (TLE):
1 35970U 93036AVL 16338.61120800  .00001216  00000-0  27098-3 0  9993
2 35970  74.0435  72.0371 0043585 293.7235  65.9359 14.57440697385049
Source of the keplerian elements: AFSPC